Vorticity
nan nan nan nan nan nan nan nan nan nan nan nan nan nan nan nan nan nan nan nan nan nan nan nan nan nan nan nan nan nan nan nan nan nan nan nan nan nan nan nan nan nan nan nan nan
nan 7 7 6 7 7 7 6 6 6 7 7 7 9 8 14 17 9 13 21 13 1 2 5 7 6 4 7 8 8 7 8 8 5 8 10 9 5 11 2 1 12 16 12 nan
nan 6 6 6 6 6 6 6 6 7 7 7 8 9 10 14 12 17 22 15 3 -4 3 7 8 6 7 8 8 8 9 8 7 7 6 9 8 9 9 4 11 13 6 4 nan
nan 5 5 6 6 7 7 7 7 7 7 8 8 9 16 16 3 16 22 11 1 -1 5 6 6 8 6 8 11 9 7 7 8 10 5 6 5 12 5 8 20 14 5 3 nan
nan 6 6 6 7 8 8 9 8 8 8 8 9 13 14 9 9 14 14 2 -2 8 7 6 6 5 6 8 7 7 8 5 3 7 6 9 9 10 5 14 17 8 7 5 nan
nan 8 7 7 7 8 8 8 8 8 9 10 11 14 12 5 14 13 7 -1 3 8 7 6 6 4 6 9 7 8 8 9 8 4 5 10 8 5 14 17 10 6 4 5 nan
nan 8 7 7 6 8 8 8 8 10 13 15 14 11 8 8 10 12 4 2 7 6 5 3 3 5 7 9 12 8 7 8 12 10 7 9 5 9 15 14 7 5 5 6 nan
nan 8 8 6 7 9 8 8 11 18 25 22 12 8 3 11 11 4 3 6 10 7 4 8 8 5 9 8 11 8 4 9 12 6 9 4 7 15 16 10 6 5 6 6 nan
nan 8 7 7 8 9 8 12 21 23 21 11 5 8 10 9 8 8 7 6 7 9 7 9 13 9 7 11 4 8 9 5 14 8 6 4 10 11 11 10 8 7 7 6 nan
nan 6 7 8 8 8 17 29 22 12 9 4 4 7 12 5 8 9 8 10 5 6 9 15 8 6 4 8 6 5 9 9 11 9 7 6 9 10 7 10 8 7 8 8 nan
nan 7 8 8 8 11 23 21 12 10 10 8 5 3 6 9 11 11 12 6 6 9 9 8 6 8 8 4 6 8 9 8 11 13 10 9 7 9 6 5 6 7 8 9 nan
nan 8 8 8 8 23 19 9 11 6 8 11 8 8 8 12 9 11 13 7 11 6 4 9 12 9 9 9 9 7 8 10 11 12 8 12 6 13 13 9 6 4 6 6 nan
nan 9 8 9 23 23 12 6 4 10 10 10 13 8 13 10 6 9 6 7 7 7 11 7 5 8 10 6 12 13 10 9 11 8 9 8 10 12 9 12 11 7 7 9 nan
nan 9 8 22 24 11 10 5 8 9 7 13 10 11 12 7 10 12 6 7 10 10 8 3 10 9 6 10 9 5 13 14 11 7 8 6 13 8 18 13 8 6 5 6 nan
nan 13 16 19 13 7 4 6 14 11 8 13 13 12 11 9 6 10 8 12 13 7 7 8 8 7 9 12 7 5 8 14 8 8 9 7 15 12 13 13 12 9 6 4 nan
nan 12 17 15 10 4 3 14 13 9 7 10 12 9 6 6 8 11 9 8 13 8 5 11 6 11 10 10 7 11 7 4 11 9 7 12 7 9 10 12 12 10 12 8 nan
nan 18 14 8 5 8 13 13 12 6 4 9 12 11 9 8 8 11 10 7 6 7 7 13 11 11 10 6 10 8 7 8 6 12 7 8 10 12 8 13 19 13 9 10 nan
nan 24 15 3 3 10 15 10 9 7 7 9 10 13 8 9 10 8 10 10 5 9 12 8 9 14 9 10 9 9 10 7 10 7 8 9 7 10 9 13 23 20 14 11 nan
nan 17 10 12 11 8 9 9 8 7 6 10 10 7 7 10 14 11 10 10 11 7 4 3 7 12 8 12 11 9 10 9 6 7 12 7 6 10 9 15 20 20 18 12 nan
nan 9 7 15 11 8 10 6 9 5 7 13 9 6 8 10 11 7 10 8 16 9 9 8 10 7 10 11 8 14 7 5 10 14 8 9 12 10 5 12 14 13 10 13 nan
nan 10 9 10 9 9 9 8 8 9 9 11 11 9 10 12 9 8 11 8 8 15 15 7 7 8 11 6 8 10 9 13 15 9 10 9 10 13 5 6 9 12 12 11 nan
nan 6 10 10 12 8 4 9 11 12 11 12 11 8 9 9 12 10 10 6 7 19 10 9 9 12 5 6 12 13 11 10 9 8 10 11 8 12 12 6 7 14 12 9 nan
nan 8 8 11 6 8 9 11 9 9 13 10 8 11 11 12 8 6 9 8 7 14 16 11 6 8 6 12 13 10 10 10 8 14 11 5 4 1 10 9 10 13 14 11 nan
nan 7 10 11 10 9 9 10 9 11 10 9 10 9 6 8 10 7 10 11 7 9 14 16 14 13 10 8 7 4 10 11 9 9 13 3 3 1 3 8 13 17 18 20 nan
nan 14 9 4 7 12 10 7 9 8 8 7 12 10 9 7 9 9 10 9 7 8 12 11 8 9 11 10 10 9 6 12 13 10 8 5 7 5 8 13 14 13 16 20 nan
nan 7 12 10 8 8 7 9 10 8 10 11 9 7 11 10 7 6 8 11 6 7 9 10 12 10 9 10 10 9 7 9 9 11 7 9 9 7 13 12 6 10 12 13 nan
nan nan nan nan nan nan nan nan nan nan nan nan nan nan nan nan nan nan nan nan nan nan nan nan nan nan nan nan nan nan nan nan nan nan nan nan nan nan nan nan nan nan nan nan nan
CAPE
3 2 3 3 0 0 0 1 1 1 1 1 2 4 1 1 0 0 0 0 535 2028 1566 18 3 10 40 103 19 0 0 0 7 0 0 119 256 291 229 315 403 476 506 600 837
3 3 1 0 1 1 1 1 1 1 1 1 1 2 0 0 0 0 0 737 1870 1169 15 8 9 0 0 20 112 61 0 20 2 0 164 446 268 265 277 227 292 556 639 866 979
3 2 0 0 1 1 0 1 1 1 1 1 1 2 0 0 0 0 0 2241 1781 829 34 23 27 227 271 10 35 140 58 307 57 186 309 450 315 251 214 214 219 536 828 954 982
1 0 0 0 1 2 1 1 1 2 2 2 1 2 1 0 0 0 1928 2203 1567 99 50 36 187 231 193 216 11 40 167 291 413 480 408 360 61 234 87 61 192 592 809 908 942
1 0 1 1 2 2 2 2 3 3 2 2 1 1 0 0 0 774 2503 2082 331 183 45 140 251 179 203 194 91 64 84 244 364 74 3 298 203 139 114 153 136 661 733 785 806
1 2 3 3 4 4 5 3 1 3 2 1 0 1 0 0 0 993 1503 750 206 169 132 65 2 80 18 214 133 175 178 195 234 385 134 322 309 213 206 14 141 570 576 598 632
2 4 2 4 4 1 0 0 0 3 2 2 0 0 0 0 106 1179 1228 878 625 463 3 0 0 0 0 0 63 81 193 328 401 389 428 178 126 228 128 0 79 308 347 378 457
4 4 4 7 1 0 0 0 3 1 0 0 0 0 0 0 3 554 19 319 3 813 1 0 0 0 0 0 0 4 10 135 43 608 277 89 68 0 10 0 30 108 204 244 220
2 6 6 0 0 0 0 1 0 0 0 0 0 0 0 0 0 0 0 0 0 0 0 0 0 0 0 0 0 0 0 7 109 274 114 4 26 0 0 0 0 24 67 131 85
0 3 0 0 0 0 1 0 0 0 0 0 0 0 0 0 0 0 0 0 0 0 0 0 0 0 0 0 0 0 0 0 6 220 86 54 34 5 0 0 0 0 0 2 0
1 1 1 0 0 0 0 0 0 0 0 0 0 0 0 0 0 0 0 0 0 0 0 0 0 0 0 0 0 0 0 0 0 138 165 46 19 49 10 0 0 0 0 0 0
6 0 1 0 0 1 0 0 0 0 0 0 0 0 0 0 0 0 0 0 0 0 0 0 0 0 0 0 0 0 0 0 31 265 145 109 91 15 12 0 0 0 0 0 0
2 2 0 0 1 0 0 0 0 0 0 0 0 0 0 0 0 0 0 0 0 0 0 0 0 0 0 0 0 0 0 0 0 363 202 155 79 36 22 1 0 0 0 0 0
1 3 1 0 0 0 0 0 0 0 0 0 0 0 0 0 0 0 0 0 0 0 0 0 0 0 0 0 0 0 0 0 496 361 17 53 56 0 23 43 0 0 0 0 0
3 1 1 1 0 0 0 0 0 0 0 0 0 0 0 0 0 0 0 0 0 0 0 0 0 0 0 0 0 0 0 63 406 0 0 5 64 0 5 25 48 0 0 0 0
6 3 1 0 0 0 0 0 0 0 0 0 0 0 0 0 0 0 0 0 0 0 0 0 0 0 0 0 0 0 0 0 0 0 0 0 0 0 87 30 31 87 0 0 0
1 0 2 0 0 0 0 0 0 0 0 0 0 0 0 0 0 0 0 0 0 0 0 0 0 0 0 0 0 0 0 0 0 0 0 0 0 0 0 0 40 118 115 5 0
0 0 0 0 0 0 0 0 0 0 0 0 0 0 0 0 0 0 0 0 0 0 0 0 0 0 0 0 0 0 0 0 0 0 0 0 0 0 0 0 0 93 227 189 0
0 0 0 0 0 0 0 0 0 0 0 0 0 0 0 0 0 0 0 0 0 0 0 0 0 0 0 0 0 0 0 0 0 0 0 0 0 27 0 124 2 74 294 336 26
0 0 0 0 0 0 0 0 0 0 0 0 0 0 0 0 0 0 0 0 0 0 0 0 0 0 0 0 0 0 0 0 0 0 0 0 0 39 210 273 288 308 395 341 108
0 0 0 0 0 0 0 0 0 0 0 0 0 0 0 0 0 0 0 0 0 0 0 0 0 0 0 0 0 0 0 0 0 0 0 0 0 0 44 55 75 383 243 196 100
0 0 0 0 0 0 0 0 0 0 0 0 0 0 0 0 0 0 0 0 0 0 0 0 0 0 0 0 0 0 0 0 0 0 0 0 0 0 0 0 6 113 378 172 112
0 0 0 0 0 0 0 0 0 0 0 0 0 0 0 0 0 0 0 0 0 0 0 0 0 0 0 0 0 0 0 0 0 0 0 0 0 0 0 0 0 38 52 185 167
0 0 0 0 0 0 0 0 0 0 0 0 0 0 0 0 0 0 0 0 0 0 0 0 0 0 0 0 0 14 28 0 0 0 0 0 0 0 7 46 287 121 147 123 298
0 0 0 0 0 0 0 0 0 0 0 0 0 0 0 0 0 0 0 0 0 0 0 0 0 0 0 0 0 33 258 210 126 35 0 0 0 52 2 5 121 252 1093 347 199
0 0 0 0 0 0 0 0 0 0 0 0 0 0 0 0 0 0 0 0 0 0 0 0 0 0 0 0 0 8 29 181 213 250 200 107 0 8 8 90 360 219 304 1705 2033
0 0 0 0 0 0 0 0 0 0 0 0 0 0 0 0 0 0 0 0 0 0 0 0 0 0 0 0 0 0 0 135 110 89 175 281 275 72 14 52 99 501 300 526 1634